Location: Columbia
(38.9520°N, 92.3340°W)
Time: 14:16:55
(UTC-05:00)

Iridium 22 - Visible Passes

Search period start: 24 April 2014 00:00
Search period end: 04 May 2014 00:00
Orbit: 776 x 779 km, 86.4° (Epoch: 24 April)

Date Brightness Start Highest point End Pass type
(mag) Time Alt. Az. Time Alt. Az. Time Alt. Az.
24 Apr 7.4 00:18:19 10° NNW 00:20:46 27° NNW 00:20:46 27° NNW visible
24 Apr 7.0 23:44:38 10° N 23:47:29 34° N 23:47:29 34° N visible
25 Apr 6.9 23:11:16 10° N 23:14:13 31° NNE 23:14:13 31° NNE visible
26 Apr 8.0 00:53:08 10° NW 00:54:41 15° NW 00:54:41 15° NW visible
26 Apr 7.2 22:38:17 10° NNE 22:40:57 22° NE 22:40:57 22° NE visible
27 Apr 7.4 00:18:41 10° NNW 00:21:25 26° NW 00:21:25 26° NW visible
27 Apr 7.6 22:06:05 10° NE 22:07:41 13° ENE 22:07:41 13° ENE visible
27 Apr 6.7 23:44:47 10° N 23:48:10 39° NNW 23:48:10 39° NNW visible
28 Apr 6.3 23:11:13 10° N 23:14:54 46° NNE 23:14:54 46° NNE visible
29 Apr 8.1 00:54:27 10° NW 00:55:23 12° WNW 00:55:23 12° WNW visible
29 Apr 6.6 22:37:59 10° NNE 22:41:40 33° NE 22:41:40 33° NE visible
30 Apr 7.5 00:19:14 10° NNW 00:22:09 21° WNW 00:22:09 21° WNW visible
30 Apr 7.1 22:05:13 10° NNE 22:08:25 20° ENE 22:08:25 20° ENE visible
30 Apr 6.7 23:45:03 10° NNW 23:48:54 38° WNW 23:48:54 38° WNW visible
01 May 7.6 21:34:03 10° ENE 21:35:09 11° ENE 21:35:11 11° ENE visible
01 May 5.9 23:11:17 10° N 23:15:40 63° NNW 23:15:40 63° NNW visible
02 May 5.8 22:37:50 10° N 22:42:27 52° ENE 22:42:27 52° ENE visible
03 May 7.8 00:20:05 10° NW 00:22:56 16° WNW 00:22:56 16° WNW visible
03 May 6.5 22:04:45 10° NNE 22:09:15 29° E 22:09:15 29° E visible
03 May 7.0 23:45:27 10° NNW 23:49:44 29° W 23:49:44 29° W visible
